Home > Weather > Honolulu > Past weeks

Flag for USA Past Weather in Honolulu, Hawaii, USA — Yesterday and Last 2 Weeks

Now
78 °F

Scattered clouds.


Feels Like: 80 °F
Forecast: 71 / 81 °F
Wind: 10 mph from South

Location: Honolulu International Airport

Current Time: May 28, 2016 at 10:21:54 AM

Latest Report: May 28, 2016 at 9:53 AM


Visibility: 10 mi

Pressure: 30.04 "Hg

Humidity: 76%

Dew Point: 70 °F

Location of HonoluluLocation

Past Weather in Honolulu — Graph

°F

Honolulu Temperature Yesterday

Maximum temperature yesterday: 82 °F (at 11:53 AM)
Minimum temperature yesterday: 72 °F (at 4:53 AM)
Average temperature yesterday: 78 °F

High & Low Weather Summary for the Past Weeks

 TemperatureHumidityPressure
High87 °F (May 16, 1:53 PM)94% (May 25, 4:11 PM)30.13 "Hg (May 25, 4:11 PM)
Low72 °F (May 24, 5:53 AM)40% (May 24, 12:53 PM)29.92 "Hg (May 13, 3:53 PM)
Average79 °F69%30.04 "Hg
* Reported May 13 8:53 AM — May 28 8:53 AM, Honolulu, Weather by CustomWeather, © 2016

Note: Actual official high and low records may vary slightly from our data, if they occured in-between our weather recording intervals... More about our weather records

Advertising

Honolulu Weather History for the Previous 24 Hours

Scroll right to see more
 ConditionsComfort  
Time TempWeatherWind HumidityBarometerVisibility
8:53 AM
Sat, May 28
79 °FScattered clouds.7 mph67%30.04 "Hg10 mi
7:53 AM79 °FScattered clouds.No wind67%30.03 "Hg10 mi
6:53 AM76 °FScattered clouds.No wind80%30.03 "Hg10 mi
5:53 AM73 °FScattered clouds.No wind88%30.00 "Hg10 mi
4:53 AM74 °FPassing clouds.No wind85%30.00 "Hg10 mi
3:53 AM74 °FLight rain. Passing clouds.3 mph85%30.01 "Hg9 mi
2:53 AM74 °FPassing clouds.3 mph82%30.01 "Hg10 mi
1:53 AM74 °FPassing clouds.3 mph79%30.03 "Hg10 mi
12:53 AM76 °FPassing clouds.8 mph77%30.05 "Hg10 mi
11:53 PM
Fri, May 27
76 °FPassing clouds.10 mph77%30.07 "Hg10 mi
10:53 PM77 °FPassing clouds.8 mph71%30.08 "Hg10 mi
9:53 PM77 °FPartly cloudy.8 mph71%30.08 "Hg10 mi
8:53 PM78 °FPartly cloudy.6 mph71%30.08 "Hg10 mi
7:53 PM77 °FPassing clouds.6 mph77%30.07 "Hg10 mi
6:53 PM77 °FBroken clouds.12 mph77%30.05 "Hg10 mi
5:53 PM79 °FPartly sunny.10 mph72%30.03 "Hg10 mi
5:00 PM81 °FPartly sunny.15 mph70%30.03 "Hg10 mi
4:53 PM81 °FPartly sunny.14 mph65%30.03 "Hg10 mi
3:53 PM81 °FPartly sunny.13 mph67%30.02 "Hg10 mi
2:53 PM82 °FScattered clouds.15 mph65%30.03 "Hg10 mi
1:53 PM82 °FScattered clouds.10 mph67%30.04 "Hg10 mi
12:53 PM82 °FScattered clouds.10 mph65%30.06 "Hg10 mi
11:53 AM82 °FScattered clouds.9 mph65%30.07 "Hg10 mi
10:53 AM81 °FScattered clouds.8 mph62%30.08 "Hg10 mi
Weather by CustomWeather, © 2016

See weather overviewHow to use our weather pages